Regional Weather Roundup
Issued by NWS

Home | Current Version | Previous Version | Text Only | Print | Product List | Glossary On
Versions: 1 2 3 4 5 6 7 8 9 10 11 12 13 14 15 16 17 18 19 20 21 22 23 24 25 26 27 28 29 30 31 32 33 34 35 36 37 38 39 40 41 42 43 44 45 46 47 48 49 50
737
ASUS43 KDTX 112210
RWRMI
MICHIGAN HOURLY REGIONAL WEATHER ROUNDUP
NATIONAL WEATHER SERVICE DETROIT/PONTIAC MI
500 PM EST THU FEB 11 2016

NOTE: "FAIR" INDICATES FEW OR NO CLOUDS BELOW 12,000 FEET WITH NO
SIGNIFICANT WEATHER AND/OR OBSTRUCTION TO VISIBILITY.

MIZ047>049-052>055-059>063-066>070-074>076-081>083-112300-
SOUTHEAST LOWER MICHIGAN

CITY           SKY/WX    TMP DP  RH WIND       PRES   REMARKS
ADRIAN         PTSUNNY   21   5  50 NW12      30.24R WCI   9
ALMA           CLOUDY    22   6  49 W9G21     30.21S WCI  12
ANN ARBOR      PTCLDY    20   2  45 W9        30.22R WCI   9
BAD AXE        CLEAR     13   2  62 SW5       30.20S WCI   5
CARO           CLOUDY    18   5  57 CALM      30.20S
DETROIT CITY   PTCLDY    20   1  43 W9        30.23R WCI   9
DETROIT        PTCLDY    21   3  45 W9        30.24R WCI  11
FLINT          CLEAR     20   2  45 W6        30.21S WCI  12
GROSSE ILE     MOCLDY    21   3  45 NW8       30.23R WCI  12
HILLSDALE      MOSUNNY   20   8  60 W7        30.20S WCI  11
HOWELL         MOCLDY    20   5  52 NW7       30.20S WCI  11

CITY           SKY/WX    TMP DP  RH WIND       PRES   REMARKS
JACKSON        PTSUNNY   20   2  45 VRB3      30.20S
LAMBERTVILLE   PTCLDY    22   9  57 W10       30.25R WCI  11
LANSING        CLOUDY    21   5  50 NW7       30.21S WCI  12
LAPEER         FAIR      17   3  54 W7        30.21R WCI   8
MASON          MOCLDY    19   4  50 NW5       30.21S WCI  13
MONROE         PTCLDY    21   3  45 W9        30.23S WCI  11
MT. CLEMENS    PTCLDY    18   1  46 NW9       30.21R WCI   7
PONTIAC        MOCLDY    18   3  52 NW8       30.19R WCI   8
PORT HOPE        N/A     14   3  61 SW5       30.18F WCI   6
PORT HURON     CLEAR     16   3  57 NW6       30.23S WCI   7
TRI CITIES     MOCLDY    20   5  52 SW5       30.20S WCI  13
MIDLAND        CLOUDY    20   3  46 W9        30.19S WCI  10
TROY           PTCLDY    21   3  45 W9        30.24R WCI  11
SAGINAW HB     CLOUDY    21   9  58 W7        30.21S WCI  13
$$
MIZ043>046-050>051-056>058-064>065-071>073-077>080-112300-
SOUTHWEST LOWER MICHIGAN

CITY           SKY/WX    TMP DP  RH WIND       PRES   REMARKS
BATTLE CREEK   PTSUNNY   19   9  65 W7        30.22R WCI  10
BENTON HARBOR  CLOUDY    20   7  57 VRB6      30.27R WCI  12
BIG RAPIDS     PTSUNNY   19   3  51 W8        30.18R WCI   8
COLDWATER      MOSUNNY   21   7  55 W9        30.22S WCI  10
FREMONT        PTSUNNY   19   5  54 W8        30.22R WCI   9
HOLLAND        CLOUDY    20   8  60 NW7       30.25R WCI  11
GRAND RAPIDS   PTSUNNY   21   6  52 W12       30.22R WCI   9
IONIA          CLOUDY    21   4  48 W12       30.20R WCI   9
KALAMAZOO      FLURRIES  20  10  65 W12       30.23S WCI   8
LUDINGTON      PTSUNNY   18   8  66 W8        30.22S WCI   7
MARSHALL       CLOUDY    21   5  50 W12       30.21S WCI   9
MOUNT PLEASANT MOCLDY    23   4  43 W10       30.18S WCI  13
MUSKEGON       PTSUNNY   19   6  57 W5        30.25S WCI  12
SOUTH HAVEN    CLOUDY    21   9  59 NW9       30.26R WCI  11
$$
MIZ016>042-112300-
NORTHERN LOWER MICHIGAN

CITY           SKY/WX    TMP DP  RH WIND       PRES   REMARKS
ALPENA         CLOUDY    17   0  47 W9        30.14S WCI   6
BEAVER ISLAND  CLOUDY    17   5  57 W7G16     30.14S WCI   8
BELLAIRE       CLOUDY    19   7  59 W8        30.17S WCI   8
CADILLAC       MOCLDY    16   6  65 W10       30.12S WCI   3
CHARLEVOIX     CLOUDY    18   8  63 W15       30.18S WCI   4
FRANKFORT      MOCLDY    19   8  63 W9        30.19F WCI   7
GRAYLING       CLOUDY    16   7  69 W14G23    30.13R WCI   1
HARBOR SPRINGS CLOUDY    18   6  61 W10G21    30.13S HAZE    WCI   6
HOUGHTON LAKE  CLOUDY    17   5  59 W12       30.14S WCI   4
MANISTEE       PTSUNNY   18   3  53 SW9       30.21S WCI   6
OSCODA         CLOUDY    17   1  49 W9        30.16S WCI   6
PELLSTON       CLOUDY    17   4  56 W12       30.13S WCI   4
ROGERS CITY    MOCLDY    16   3  56 W6        30.13F WCI   8
TRAVERSE CITY  FLURRIES  19   4  51 W10       30.17S WCI   7
$$
MIZ007>008-015-112300-
EASTERN UPPER MICHIGAN

CITY           SKY/WX    TMP DP  RH WIND       PRES   REMARKS
KINROSS        CLOUDY    16  12  86 W12G17    30.06F WCI   3
MACKINAC ISLAN CLOUDY    17   6  60 W16G26    30.09F WCI   2
NEWBERRY       LGT SNOW  14   8  76 W13G20    30.09S WCI   0
S. S. MARIE    LGT SNOW  13   8  81 S6        30.06S WCI   4
MUNISING         N/A     16   5  62 VRB5      30.12F WCI   9
$$
MIZ004>006-011>014-085-112300-
CENTRAL UPPER MICHIGAN

CITY           SKY/WX    TMP DP  RH WIND       PRES   REMARKS
MANISTIQUE     CLOUDY    16   3  56 W7        30.14S WCI   6
ESCANABA       PTCLDY    19   1  45 W9        30.15S WCI   9
MENOMINEE      SUNNY     19   1  45 SW9       30.16F WCI   9
SAWYER-GWINN   CLOUDY    14   3  62 W10       30.08F WCI   1
$$
MIZ001>003-009>011-084-112300-
WESTERN UPPER MICHIGAN

CITY           SKY/WX    TMP DP  RH WIND       PRES   REMARKS
IRON MOUNTAIN  PTSUNNY   17   1  49 NW6       30.10S WCI   9
HOUGHTON       LGT SNOW  14   8  77 W14       30.06F WCI  -1
COPPER HARBOR    N/A     16   8  71 NW9       30.07F WCI   4
IRONWOOD       SUNNY     12  -2  52 W8        30.08F WCI   1
$$

ABBREVIATIONS USED IN REMARKS
   TC - TEMPERATURE IN CELSIUS
  WCI - WIND CHILL INDEX
   HX - HEAT INDEX
  VSB - VISIBILITY





USA.gov is the U.S. government's official web portal to all federal, state and local government web resources and services.